User: anonymous   Login
Location: Newark
(33.6333°S, 78.8500°W)
Time: 21:42:41
(UTC+00:00)
Language:

Explorer 11/Cluster Stage 4 - Orbit

View from above orbital plane
View from above orbital plane
View from above satellite
View from above satellite

Ground track
Ground track

The orbit data is extracted from the following two-line orbital elements,

1   107U 61013A   19260.47625694  .00000229  00000-0  11949-4 0  9991
2   107  28.7866 288.6395 0547444 113.0226 252.9017 14.08824422927101
Epoch (UTC): 17 September 2019 11:25:48
Eccentricity: 0.0547444
inclination: 28.7866°
perigee height: 467 km
apogee height: 1260 km
right ascension of ascending node: 288.6395°
argument of perigee: 113.0226°
revolutions per day: 14.08824422
mean anomaly at epoch: 252.9017°
orbit number at epoch: 92710

The dashed part of the orbit path shows where the satellite is in the earth's shadow,  

DLR